Location: Proctor
(47.8934°N, 114.3048°W)
Time: 10:58:26
(UTC+00:00)

Transit 4A - Pass Details

Date: 28 June 2024
Orbit: 870 x 973 km, 66.8° (Epoch: 13 July)

Event Time Altitude Azimuth Distance (km) Brightness Sun altitude
Rises 09:24:51 0° 313° (NW) 3,471 11.1 -15.1°
Reaches altitude 10° 09:29:12 10° 344° (NNW) 2,544 10.9 -14.8°
Maximum altitude 09:31:27 12° 7° (N) 2,399 11.2 -14.6°
Drops below altitude 10° 09:33:43 10° 30° (NNE) 2,562 11.6 -14.5°
Sets 09:38:08 0° 60° (ENE) 3,524 12.0 -14.1°
